North Conway, NH

4:59 AM EST on December 15, 2019 (GMT -0500)
North Conway

Weather History for KCWN - November, 2019

Change the Weather History Date:

Monday, November 11, 2019

  Actual Average (WUND) Record (WUND)
Temperature  
Mean Temperature 22 °F -  
Max Temperature 32 °F - - (-1)
Min Temperature 13 °F - - (-1)
Degree Days  
Heating Degree Days 42    
Moisture  
Dew Point 15 °F    
Average Humidity 84    
Maximum Humidity 90    
Minimum Humidity 75    
Precipitation  
Precipitation 0.00 in - - ()
Sea Level Pressure  
Sea Level Pressure 30.14 in    
Wind  
Wind Speed 11 mph (NNE)    
Max Wind Speed 18 mph    
Max Gust Speed 28 mph    
Visibility 10 miles    
Events Snow    
Averages and records for this station are not official NWS values.
T = Trace of Precipitation, MM = Missing Value Source: NWS Daily Summary

Daily Weather History Graph

Daily Weather History Graph

Search for Another Location

Airport or City:

Astronomy

Nov. 11, 2019 Rise Set
Actual Time 6:34 AM EST 4:22 PM EST
Civil Twilight 6:03 AM EST 4:53 PM EST
Nautical Twilight 5:28 AM EST 5:28 PM EST
Astronomical Twilight 4:54 AM EST 6:02 PM EST
Moon 4:19 PM EST (11/11) 5:17 AM EST (11/11)
Length of Visible Light 10h 50m
Length of Day
9h 48m
Waxing Gibbous, 99% of the Moon is Illuminated
Nov 11
Waxing Gibbous
Nov 12
Full
Nov 19
Last Quarter
Nov 26
New
Dec 4
First Quarter

Hourly Weather History & Observations

Time (EST) Temp. Windchill Dew Point Humidity Pressure Visibility Wind Dir Wind Speed Gust Speed Precip Events Conditions
12:58 AM 32.7 °F 22.1 °F 27.0 °F 79% 29.75 in 10.0 mi NNW 16.1 mph 23.0 mph N/A   Clear
1:58 AM 30.9 °F 20.2 °F 27.9 °F 88% 29.78 in 10.0 mi North 15.0 mph - N/A   Mostly Cloudy
3:18 AM 26.6 °F 16.8 °F 23.0 °F 86% 29.82 in 10.0 mi NNW 10.4 mph - N/A   Overcast
3:58 AM 25.3 °F 12.6 °F 21.9 °F 87% 29.85 in 10.0 mi North 16.1 mph - N/A   Overcast
4:58 AM 21.7 °F 7.5 °F 18.1 °F 86% 29.93 in 10.0 mi NNW 17.3 mph 24.2 mph N/A   Overcast
5:00 AM 21.2 °F 7.8 °F 17.6 °F 86% 29.93 in 10.0 mi NNW 15.0 mph 24.2 mph N/A Snow Light Snow
5:46 AM 19.4 °F 4.1 °F 15.8 °F 86% 29.93 in 10.0 mi NNW 18.4 mph 26.5 mph N/A   Light Freezing Drizzle
5:58 AM 19.4 °F 5.0 °F 15.8 °F 86% 29.94 in 9.0 mi NNW 16.1 mph 24.2 mph N/A   Light Freezing Drizzle
6:14 AM 19.4 °F 4.5 °F 14.0 °F 80% 29.95 in 7.0 mi NNW 17.3 mph 24.2 mph N/A Snow Light Snow
6:58 AM 16.0 °F -0.4 °F 11.3 °F 82% 30.00 in 4.0 mi NNW 18.4 mph 27.6 mph N/A Snow Light Snow
8:18 AM 14.0 °F 2.0 °F 8.6 °F 79% 30.07 in 8.0 mi NNW 9.2 mph 18.4 mph N/A Snow Light Snow
8:58 AM 13.6 °F 0.0 °F 9.1 °F 82% 30.31 in 9.0 mi NNW 11.5 mph 17.3 mph N/A Snow Light Snow
9:58 AM 16.2 °F 4.7 °F 13.6 °F 90% 30.13 in 10.0 mi SSE 9.2 mph - N/A Snow Light Snow
10:42 AM 17.6 °F - 14.0 °F 86% 30.15 in 9.0 mi Calm Calm - N/A Snow Light Snow
10:52 AM 17.6 °F 10.7 °F 14.0 °F 86% 30.13 in 10.0 mi North 4.6 mph - N/A Snow Light Snow
10:58 AM 17.4 °F 8.0 °F 13.3 °F 84% 30.16 in 10.0 mi NNE 6.9 mph - N/A Snow Light Snow
11:16 AM 17.6 °F 9.3 °F 12.2 °F 79% 30.16 in 10.0 mi North 5.8 mph - N/A   Overcast
11:26 AM 17.6 °F 10.7 °F 12.2 °F 79% 30.16 in 10.0 mi North 4.6 mph - N/A   Overcast
11:31 AM 17.6 °F 10.7 °F 12.2 °F 79% 30.18 in 10.0 mi NNE 4.6 mph - N/A Snow Light Snow Showers
11:48 AM 17.6 °F 12.3 °F 14.0 °F 86% 30.35 in 10.0 mi NE 3.5 mph - N/A   Overcast
11:49 AM 17.6 °F 9.3 °F 12.2 °F 79% 30.35 in 10.0 mi NE 5.8 mph - N/A Snow Light Snow Showers
11:58 AM 18.1 °F 12.9 °F 12.4 °F 78% 30.21 in 10.0 mi ENE 3.5 mph - N/A Snow Light Snow Showers
12:58 PM 19.4 °F 14.3 °F 12.6 °F 75% 30.36 in 10.0 mi ESE 3.5 mph - N/A Snow Light Snow Showers
1:13 PM 19.4 °F 10.4 °F 15.8 °F 86% 30.23 in 10.0 mi ESE 6.9 mph - N/A Snow Light Snow Showers
1:33 PM 19.4 °F 6.0 °F 15.8 °F 86% 30.23 in 10.0 mi ESE 13.8 mph - N/A Snow Light Snow
1:58 PM 18.0 °F 11.1 °F 14.4 °F 86% 30.23 in 10.0 mi SE 4.6 mph - N/A Snow Light Snow
2:09 PM 17.6 °F 7.3 °F 14.0 °F 86% 30.22 in 10.0 mi SE 8.1 mph - N/A   Overcast
2:58 PM 19.4 °F 8.6 °F 15.6 °F 85% 30.23 in 10.0 mi SSE 9.2 mph - N/A   Mostly Cloudy
3:33 PM 21.2 °F 11.7 °F 15.8 °F 80% 30.23 in 10.0 mi SE 8.1 mph - N/A   Mostly Cloudy
4:38 PM 21.2 °F - 17.6 °F 86% 30.25 in 10.0 mi Calm Calm - N/A   Scattered Clouds
4:58 PM 20.8 °F - 16.7 °F 84% 30.25 in 10.0 mi Calm Calm - N/A   Clear
5:58 PM 20.8 °F 16.0 °F 16.3 °F 83% 30.27 in 10.0 mi SSE 3.5 mph - N/A   Clear
7:58 PM 20.7 °F 15.8 °F 16.0 °F 82% 30.30 in 10.0 mi NNW 3.5 mph - N/A   Clear
9:58 PM 20.5 °F - 16.2 °F 83% 30.30 in 10.0 mi Calm Calm - N/A   Clear
10:58 PM 19.0 °F - 15.3 °F 85% 30.32 in 10.0 mi Calm Calm - N/A   Clear
11:58 PM 18.3 °F 11.5 °F 15.4 °F 89% 30.32 in 10.0 mi SSE 4.6 mph - N/A   Clear